Location: Marion Hill
(40.7303°N, 80.2959°W)
Time: 22:59:01
(UTC+00:00)

Aureole 3 Rocket - Pass Details

Date: 29 October 2020
Orbit: 399 x 1739 km, 82.5° (Epoch: 29 November)

Event Time Altitude Azimuth Distance (km) Brightness Sun altitude
Rises 23:23:53 0° 193° (SSW) 2,585 6.5 -12.5°
Reaches altitude 10° 23:25:43 10° 196° (SSW) 1,815 5.8 -12.9°
Maximum altitude 23:29:38 70° 280° (W) 711 3.5 -13.6°
Drops below altitude 10° 23:35:08 10° 4° (N) 2,519 6.1 -14.7°
Sets 23:38:04 0° 7° (N) 3,696 6.9 -15.2°
